Content
SEND FEEDBACK

Daily
Averages
Monthly
Summary
United States of America

DOWNIEVILLE, CALIFORNIA


Home > North America > United States > California
Elevation: 5045 feet     Latitude: 39 34N     Longitude: 120 38W

WEATHER
 
SELECT A DAY
Number of Records: 233,711;   Date Range: 1/1/95 - 10/20/14
 
SHARE

PRINT THIS DATA

[ ← Previous Day ]
WEATHER ALMANAC - FEBRUARY 1, 2013
[ Next Day → ]
[ °C ]   °F
Weather ElementAverageHighLow
Temperature48.6 °F54 °F (11:52 am)43 °F (2:52 am)
Dewpoint24.7 °F33.1 °F (5:52 pm)15.1 °F (11:52 am)
Humidity40.6 %59 % (10:52 pm)22 % (11:52 am)
Barometer30.18 in30.22 in (9:52 pm)30.13 in (3:52 pm)
Wind Speed2.3 mph6.9 mph (12:52 pm)
Weather ElementAverage
Visibility10 mi
Wind DirectionENE (80 °)

Weather ElementTotal
Precipitation---
Heating Degree Days16.5 (Base 65)
Averaged from 23 records on February 1, 2013
WEATHER CONDITIONS BREAKOUT
WIND DIRECTION BREAKOUT
WEATHER BY HOUR - FEBRUARY 1, 2013
[ °C ]   °F
Local TimeTemperatureDewpointHumidityBarometerVisibilityWind DirectionWind SpeedGust SpeedPrecipitationEventsConditions
1:52 AM46.0 °F21.0 °F37 %30.16 in10.0 miCalmClear
2:52 AM43.0 °F21.9 °F43 %30.17 in10.0 miEast (100°)3.5 mphClear
3:52 AM45.0 °F21.9 °F40 %30.15 in10.0 miCalmClear
4:52 AM45.0 °F19.9 °F37 %30.17 in10.0 miCalmClear
5:52 AM44.1 °F21.0 °F40 %30.19 in10.0 miCalmClear
6:52 AM44.1 °F19.9 °F38 %30.20 in10.0 miESE (110°)3.5 mphClear
7:52 AM45.0 °F21.0 °F39 %30.20 in10.0 miEast (100°)3.5 mphClear
8:52 AM48.9 °F21.0 °F33 %30.20 in10.0 miSE (130°)3.5 mphClear
9:52 AM50.0 °F19.9 °F31 %30.20 in10.0 miSSE (150°)4.6 mphClear
10:52 AM52.0 °F17.1 °F25 %30.19 in10.0 miSouth (170°)3.5 mphClear
11:52 AM54.0 °F15.1 °F22 %30.17 in10.0 miSSW (200°)3.5 mphClear
12:52 PM54.0 °F21.0 °F28 %30.15 in10.0 miWest (280°)6.9 mphClear
1:52 PM54.0 °F28.0 °F37 %30.14 in10.0 miWNW (300°)4.6 mphClear
2:52 PM54.0 °F28.9 °F38 %30.14 in10.0 miCalmClear
3:52 PM54.0 °F28.9 °F38 %30.13 in10.0 miCalmClear
4:52 PM52.0 °F30.9 °F45 %30.14 in10.0 miCalmClear
5:52 PM48.0 °F33.1 °F56 %30.17 in10.0 miCalmClear
6:52 PM48.0 °F30.9 °F52 %30.18 in10.0 miNE (40°)5.8 mphClear
7:52 PM51.1 °F21.0 °F31 %30.18 in10.0 miCalmClear
8:52 PM46.0 °F30.0 °F54 %30.21 in10.0 miESE (120°)3.5 mphClear
9:52 PM46.0 °F30.9 °F56 %30.22 in10.0 miENE (60°)3.5 mphClear
10:52 PM46.9 °F33.1 °F59 %30.20 in10.0 miEast (80°)3.5 mphClear
11:52 PM46.9 °F30.9 °F54 %30.19 in10.0 miCalmClear
Hourly data recorded from KBLU, located miles away from Downieville, California







STORIES FROM OUR PARTNERS